Great Bend, KS

2:06 AM CST on December 16, 2019 (GMT -0600)
Great Bend Municipal

Weather History for KGBD - November, 2019

Change the Weather History Date:

Tuesday, November 19, 2019

  Actual Average Record
Temperature  
Mean Temperature 48 °F -  
Max Temperature 68 °F 55 °F 80 °F (2007)
Min Temperature 28 °F 32 °F 16 °F (1957)
Degree Days  
Heating Degree Days 17    
Moisture  
Dew Point 31 °F    
Average Humidity 55    
Maximum Humidity 82    
Minimum Humidity 28    
Precipitation  
Precipitation 0.00 in - - ()
Sea Level Pressure  
Sea Level Pressure 29.88 in    
Wind  
Wind Speed 7 mph (SSE)    
Max Wind Speed 21 mph    
Max Gust Speed -    
Visibility 10 miles    
Events      
Averages and records for this station are not official NWS values.
T = Trace of Precipitation, MM = Missing Value Source: NWS Daily Summary

Daily Weather History Graph

Daily Weather History Graph

Search for Another Location

Airport or City:

Astronomy

Nov. 19, 2019 Rise Set
Actual Time 7:20 AM CST 5:20 PM CST
Civil Twilight 6:52 AM CST 5:48 PM CST
Nautical Twilight 6:20 AM CST 6:20 PM CST
Astronomical Twilight 5:48 AM CST 6:52 PM CST
Moon No Moon Rise 1:33 PM CST (11/19)
Length of Visible Light 10h 56m
Length of Day
9h 59m
Waning Gibbous, 51% of the Moon is Illuminated
Nov 19
Waning Gibbous
Nov 19
Last Quarter
Nov 26
New
Dec 4
First Quarter
Dec 11
Full

Hourly Weather History & Observations

Time (CST) Temp. Windchill Dew Point Humidity Pressure Visibility Wind Dir Wind Speed Gust Speed Precip Events Conditions
12:56 AM 35.1 °F - 26.1 °F 70% 29.93 in 10.0 mi Calm Calm - N/A   Clear
1:56 AM 33.1 °F 27.7 °F 25.0 °F 72% 29.93 in 10.0 mi West 5.8 mph - N/A   Clear
2:56 AM 37.0 °F 33.3 °F 26.1 °F 65% 29.93 in 10.0 mi WSW 4.6 mph - N/A   Clear
3:56 AM 32.0 °F 28.7 °F 24.1 °F 73% 29.94 in 10.0 mi NNW 3.5 mph - N/A   Clear
4:56 AM 30.0 °F 26.5 °F 24.1 °F 79% 29.94 in 10.0 mi West 3.5 mph - N/A   Clear
5:56 AM 28.9 °F 23.9 °F 23.0 °F 78% 29.96 in 10.0 mi SW 4.6 mph - N/A   Clear
6:56 AM 28.0 °F 24.2 °F 23.0 °F 81% 29.98 in 10.0 mi SW 3.5 mph - N/A   Clear
7:56 AM 30.9 °F - 26.1 °F 82% 29.99 in 10.0 mi Calm Calm - N/A   Clear
8:56 AM 39.9 °F - 28.0 °F 63% 29.99 in 10.0 mi Calm Calm - N/A   Clear
9:56 AM 50.0 °F - 30.9 °F 48% 29.97 in 10.0 mi ESE 4.6 mph - N/A   Clear
10:56 AM 59.0 °F - 35.1 °F 41% 29.94 in 10.0 mi SSE 12.7 mph - N/A   Clear
11:56 AM 62.1 °F - 33.1 °F 34% 29.90 in 10.0 mi SE 13.8 mph - N/A   Clear
12:56 PM 64.9 °F - 33.1 °F 31% 29.86 in 10.0 mi SSE 18.4 mph - N/A   Clear
1:56 PM 66.9 °F - 33.1 °F 28% 29.83 in 10.0 mi SE 18.4 mph - N/A   Clear
2:56 PM 68.0 °F - 34.0 °F 28% 29.80 in 10.0 mi SE 20.7 mph - N/A   Clear
3:56 PM 66.0 °F - 35.1 °F 32% 29.81 in 10.0 mi SSE 20.7 mph - N/A   Clear
4:56 PM 61.0 °F - 35.1 °F 38% 29.81 in 10.0 mi SE 13.8 mph - N/A   Clear
5:56 PM 55.9 °F - 36.0 °F 47% 29.82 in 10.0 mi ESE 9.2 mph - N/A   Clear
6:56 PM 55.0 °F - 36.0 °F 49% 29.82 in 10.0 mi ESE 12.7 mph - N/A   Clear
7:56 PM 54.0 °F - 36.0 °F 51% 29.80 in 10.0 mi ESE 13.8 mph - N/A   Clear
8:56 PM 51.1 °F - 37.0 °F 59% 29.81 in 10.0 mi SE 11.5 mph - N/A   Clear
9:56 PM 52.0 °F - 37.0 °F 57% 29.79 in 10.0 mi SE 13.8 mph - N/A   Clear
10:56 PM 52.0 °F - 37.0 °F 57% 29.76 in 10.0 mi SE 15.0 mph - N/A   Clear
11:56 PM 51.1 °F - 37.0 °F 59% 29.75 in 10.0 mi SE 16.1 mph - N/A   Clear